Station KLMW1 - 9440357 - TEMCO Kalama Terminal, WA Image indicating link to RSS feed of recent meteorological observations for station KLMW1


Conditions at KLMW1 as of
(7:00 pm PDT on 07/17/2024)
0200 GMT on 07/18/2024:
     

Click on the graph icon in the table below to see a time series plot of the last five days of that observation.

5-day plot - Atmospheric Pressure Atmospheric Pressure (PRES):30.00 in
5-day plot - Pressure Tendency Pressure Tendency (PTDY):+0.01 in ( Rising )
NOS Water Level Observation Network Water Level
Previous observations
TIME
(PDT)
5-day plot - Wind Direction
WDIR
 
5-day plot - Wind Speed
WSPD
kts
5-day plot - Wind Gust
GST
kts
5-day plot - Wave Height
WVHT
ft
5-day plot - Dominant Wave Period
DPD
sec
5-day plot - Average Wave Period
APD
sec
5-day plot - Mean Wave Direction
MWD
 
5-day plot - Atmospheric Pressure
PRES
in
5-day plot - Pressure Tendency
PTDY
in
5-day plot - Air Temperature
ATMP
°F
5-day plot - Water Temperature
WTMP
°F
5-day plot - Dew Point
DEWP
°F
5-day plot - Salinity
SAL
psu
5-day plot - Visibility
VIS
nmi
5-day plot - Tide (above MLLW)
TIDE
ft
2024-07-17 06:54 pm-------30.00-------
2024-07-17 06:48 pm-------30.00-------
2024-07-17 06:42 pm-------30.00-------
2024-07-17 06:36 pm-------30.00-------
2024-07-17 06:30 pm-------30.00-------
2024-07-17 06:24 pm-------30.00-------
2024-07-17 06:18 pm-------29.99-------
2024-07-17 06:12 pm-------29.99-------
2024-07-17 06:06 pm-------29.99-------
2024-07-17 06:00 pm-------29.99+0.00------
2024-07-17 05:54 pm-------29.99-------
2024-07-17 05:48 pm-------29.99-------
2024-07-17 05:42 pm-------29.98-------
2024-07-17 05:36 pm-------29.98-------
2024-07-17 05:30 pm-------29.98-------
2024-07-17 05:24 pm-------29.98-------
2024-07-17 05:18 pm-------29.98-------
2024-07-17 05:12 pm-------29.98-------
2024-07-17 05:06 pm-------29.98-------
2024-07-17 05:00 pm-------29.98-0.02------
2024-07-17 04:54 pm-------29.98-------
2024-07-17 04:48 pm-------29.98-------
2024-07-17 04:42 pm-------29.98-------
2024-07-17 04:36 pm-------29.98-------
2024-07-17 04:30 pm-------29.98-------
2024-07-17 04:24 pm-------29.98-------
2024-07-17 04:18 pm-------29.98-------
2024-07-17 04:12 pm-------29.99-------
2024-07-17 04:06 pm-------29.99-------
2024-07-17 04:00 pm-------29.99-0.02------
2024-07-17 03:54 pm-------29.99-------
2024-07-17 03:48 pm-------29.99-------
2024-07-17 03:42 pm-------29.99-------
2024-07-17 03:36 pm-------29.99-------
2024-07-17 03:30 pm-------30.00-------
2024-07-17 03:24 pm-------30.00-------
2024-07-17 03:18 pm-------29.99-------
2024-07-17 03:12 pm-------29.99-------
2024-07-17 03:06 pm-------29.99-------
2024-07-17 03:00 pm-------29.99-0.01------
2024-07-17 02:54 pm-------30.00-------
2024-07-17 02:48 pm-------30.00-------
2024-07-17 02:42 pm-------30.00-------
2024-07-17 02:36 pm-------30.00-------
2024-07-17 02:30 pm-------30.00-------
2024-07-17 02:24 pm-------30.00-------
2024-07-17 02:18 pm-------29.99-------
2024-07-17 02:12 pm-------30.00-------
2024-07-17 02:06 pm-------30.00-------
2024-07-17 02:00 pm-------30.00+0.00------
2024-07-17 01:54 pm-------30.00-------
2024-07-17 01:48 pm-------30.01-------
2024-07-17 01:42 pm-------30.01-------
2024-07-17 01:36 pm-------30.01-------
2024-07-17 01:30 pm-------30.01-------
2024-07-17 01:24 pm-------30.01-------
2024-07-17 01:18 pm-------30.01-------
2024-07-17 01:12 pm-------30.01-------
2024-07-17 01:06 pm-------30.01-------
2024-07-17 01:00 pm-------30.01+0.01------
2024-07-17 12:54 pm-------30.01-------
2024-07-17 12:48 pm-------30.01-------
2024-07-17 12:42 pm-------30.01-------
2024-07-17 12:36 pm-------30.01-------
2024-07-17 12:30 pm-------30.01-------
2024-07-17 12:24 pm-------30.01-------
2024-07-17 12:18 pm-------30.01-------
2024-07-17 12:12 pm-------30.01-------
2024-07-17 12:06 pm-------30.01-------
2024-07-17 12:00 pm-------30.01+0.01------
2024-07-17 11:54 am-------30.00-------
2024-07-17 11:48 am-------30.00-------
2024-07-17 11:42 am-------30.01-------
2024-07-17 11:36 am-------30.01-------
2024-07-17 11:30 am-------30.01-------
2024-07-17 11:24 am-------30.00-------
2024-07-17 11:18 am-------30.00-------
2024-07-17 11:12 am-------30.00-------
2024-07-17 11:06 am-------30.00-------
2024-07-17 11:00 am-------30.00+0.00------
2024-07-17 10:54 am-------30.00-------
2024-07-17 10:48 am-------30.00-------
2024-07-17 10:42 am-------30.00-------
2024-07-17 10:36 am-------30.00-------
2024-07-17 10:30 am-------29.99-------
2024-07-17 10:24 am-------30.00-------
2024-07-17 10:18 am-------30.00-------
2024-07-17 10:12 am-------30.00-------
2024-07-17 10:06 am-------29.99-------
2024-07-17 10:00 am-------29.99+0.00------
2024-07-17 09:54 am-------29.99-------
2024-07-17 09:48 am-------29.99-------
2024-07-17 09:42 am-------29.99-------
2024-07-17 09:36 am-------29.99-------
2024-07-17 09:30 am-------30.00-------
2024-07-17 09:24 am-------29.99-------
2024-07-17 09:18 am-------29.99-------
2024-07-17 09:12 am-------29.99-------
2024-07-17 09:06 am-------29.99-------
2024-07-17 09:00 am-------29.99+0.04------
2024-07-17 08:54 am-------29.99-------
2024-07-17 08:48 am-------29.99-------
2024-07-17 08:42 am-------29.99-------
2024-07-17 08:36 am-------29.99-------
2024-07-17 08:30 am-------29.99-------
2024-07-17 08:24 am-------29.99-------
2024-07-17 08:18 am-------29.99-------
2024-07-17 08:12 am-------30.00-------
2024-07-17 08:06 am-------30.00-------
2024-07-17 08:00 am-------30.00+0.07------
2024-07-17 07:54 am-------30.00-------
2024-07-17 07:48 am-------29.99-------
2024-07-17 07:42 am-------30.00-------
2024-07-17 07:36 am-------29.99-------
2024-07-17 07:30 am-------30.00-------
2024-07-17 07:24 am-------29.99-------
2024-07-17 07:18 am-------29.99-------
2024-07-17 07:12 am-------29.99-------
2024-07-17 07:06 am-------29.99-------
2024-07-17 07:00 am-------29.99+0.08------
2024-07-17 06:54 am-------29.99-------
2024-07-17 06:48 am-------29.99-------
2024-07-17 06:42 am-------29.98-------
2024-07-17 06:36 am-------29.98-------
2024-07-17 06:30 am-------29.97-------
2024-07-17 06:24 am-------29.97-------
2024-07-17 06:18 am-------29.96-------
2024-07-17 06:12 am-------29.96-------
2024-07-17 06:06 am-------29.96-------
2024-07-17 06:00 am-------29.95-0.03------
2024-07-17 05:54 am-------29.95-------
2024-07-17 05:48 am-------29.95-------
2024-07-17 05:42 am-------29.95-------
2024-07-17 05:36 am-------29.95-------
2024-07-17 05:30 am-------29.95-------
2024-07-17 05:24 am-------29.94-------
2024-07-17 05:18 am-------29.93-------
2024-07-17 05:12 am-------29.95-------
2024-07-17 05:06 am-------29.94-------
2024-07-17 05:00 am-------29.93+0.02------
2024-07-17 04:54 am-------29.91-------
2024-07-17 04:48 am-------29.91-------
2024-07-17 04:42 am-------29.91-------
2024-07-17 04:36 am-------29.91-------
2024-07-17 04:30 am-------29.91-------
2024-07-17 04:24 am-------29.91-------
2024-07-17 04:18 am-------29.90-------
2024-07-17 04:12 am-------29.89-------
2024-07-17 04:06 am-------29.89-------
2024-07-17 04:00 am-------29.91-0.02------
2024-07-17 03:54 am-------29.93-------
2024-07-17 03:48 am-------29.94-------
2024-07-17 03:42 am-------29.96-------
2024-07-17 03:36 am-------29.96-------
2024-07-17 03:30 am-------29.95-------
2024-07-17 03:24 am-------29.96-------
2024-07-17 03:18 am-------29.96-------
2024-07-17 03:12 am-------29.97-------
2024-07-17 03:06 am-------29.98-------
2024-07-17 03:00 am-------29.98+0.08------
2024-07-17 02:54 am-------29.98-------
2024-07-17 02:48 am-------30.00-------
2024-07-17 02:42 am-------29.99-------
2024-07-17 02:36 am-------29.98-------
2024-07-17 02:30 am-------29.96-------
2024-07-17 02:24 am-------29.96-------
2024-07-17 02:18 am-------29.96-------
2024-07-17 02:12 am-------29.96-------
2024-07-17 02:06 am-------29.94-------
2024-07-17 02:00 am-------29.91+0.05------
2024-07-17 01:54 am-------29.91-------
2024-07-17 01:48 am-------29.90-------
2024-07-17 01:42 am-------29.91-------
2024-07-17 01:36 am-------29.91-------
2024-07-17 01:30 am-------29.92-------
2024-07-17 01:24 am-------29.92-------
2024-07-17 01:18 am-------29.93-------
2024-07-17 01:12 am-------29.93-------
2024-07-17 01:06 am-------29.93-------
2024-07-17 01:00 am-------29.93+0.08------
2024-07-17 12:54 am-------29.94-------
2024-07-17 12:48 am-------29.94-------
2024-07-17 12:42 am-------29.94-------
2024-07-17 12:36 am-------29.94-------
2024-07-17 12:30 am-------29.92-------
2024-07-17 12:24 am-------29.92-------
2024-07-17 12:18 am-------29.92-------
2024-07-17 12:12 am-------29.91-------
2024-07-17 12:06 am-------29.91-------
2024-07-17 12:00 am-------29.91+0.08------
2024-07-16 11:54 pm-------29.90-------
2024-07-16 11:48 pm-------29.90-------
2024-07-16 11:42 pm-------29.89-------
2024-07-16 11:36 pm-------29.89-------
2024-07-16 11:30 pm-------29.88-------
2024-07-16 11:24 pm-------29.86-------
2024-07-16 11:18 pm-------29.86-------
2024-07-16 11:12 pm-------29.86-------
2024-07-16 11:06 pm-------29.87-------
2024-07-16 11:00 pm-------29.87+0.04------
2024-07-16 10:54 pm-------29.86-------
2024-07-16 10:48 pm-------29.86-------
2024-07-16 10:42 pm-------29.85-------
2024-07-16 10:36 pm-------29.85-------
2024-07-16 10:30 pm-------29.85-------
2024-07-16 10:24 pm-------29.85-------
2024-07-16 10:18 pm-------29.85-------
2024-07-16 10:12 pm-------29.85-------
2024-07-16 10:06 pm-------29.85-------
2024-07-16 10:00 pm-------29.85+0.02------
2024-07-16 09:54 pm-------29.85-------
2024-07-16 09:48 pm-------29.84-------
2024-07-16 09:42 pm-------29.83-------
2024-07-16 09:36 pm-------29.83-------
2024-07-16 09:30 pm-------29.83-------
2024-07-16 09:24 pm-------29.83-------
2024-07-16 09:18 pm-------29.83-------
2024-07-16 09:12 pm-------29.83-------
2024-07-16 09:06 pm-------29.83-------
2024-07-16 09:00 pm-------29.82-0.01------
2024-07-16 08:54 pm-------29.82-------
2024-07-16 08:48 pm-------29.82-------
2024-07-16 08:42 pm-------29.82-------
2024-07-16 08:36 pm-------29.82-------
2024-07-16 08:30 pm-------29.82-------
2024-07-16 08:24 pm-------29.82-------
2024-07-16 08:18 pm-------29.82-------
2024-07-16 08:12 pm-------29.82-------
2024-07-16 08:06 pm-------29.82-------
2024-07-16 08:00 pm-------29.83-0.03------
2024-07-16 07:54 pm-------29.83-------
2024-07-16 07:48 pm-------29.83-------
2024-07-16 07:42 pm-------29.83-------
2024-07-16 07:36 pm-------29.83-------
2024-07-16 07:30 pm-------29.83-------
2024-07-16 07:24 pm-------29.83-------
2024-07-16 07:18 pm-------29.83-------
2024-07-16 07:12 pm-------29.83-------
2024-07-16 07:06 pm-------29.83-------
2024-07-16 07:00 pm-------29.83-0.04------
2024-07-16 06:54 pm-------29.83-------